Voltar ao catálogo

FENGYUN 1C DEB

AtivoSSO
NORAD 30728·DEBRIS·🇨🇳 China

Lançado May 10, 1999 de Taiyuan Satellite Launch Center

Loading…

Próximas Passagens (próximas 24 horas)

TLE

AtualizadoSource: Space-Track

Época: Sep 14, 2026, 23:14 UTC

1 30728U 99025ASN 26257.96821677  .00000078  00000-0  50427-4 0  9990
2 30728  98.5321 261.3343 0098285 357.8456   2.2287 14.23565942 16168

Acompanhe FENGYUN 1C DEB em tempo real com AllMySat

Download on the App Store